Wind_Speed
25 25 25 25 25 25 25 24 24 23 22 22 21 21 20 20 19 18 17 16 14 14 14 14 14 14 15 16 16 15 14 13 12 12 12 11 11 11 11 12 12 13 13 14 14 14 14 15 14 11 6 2 5 14 20 22 24 26 25 24 25 26 25 25 29 31 30 33 36 37 37 37 36 35 34 33 32 31 30 28 27 27 26 24 24 25 25 25
27 27 27 27 27 27 27 27 26 26 25 25 24 24 23 22 21 21 20 19 17 16 15 15 15 14 14 15 16 16 16 14 13 12 11 11 10 9 9 10 10 10 11 12 12 12 12 12 13 11 9 8 4 4 12 20 24 27 27 26 27 27 25 24 26 28 28 30 32 34 34 34 35 34 33 32 31 30 29 28 27 26 23 20 19 20 21 22
29 29 30 30 30 30 29 29 29 29 28 28 27 27 26 25 24 23 22 21 20 19 18 17 16 16 15 15 15 17 17 16 15 13 11 11 11 9 9 8 8 9 9 9 10 10 10 10 11 10 10 12 10 7 2 12 21 27 26 25 26 26 25 25 24 25 25 25 27 28 30 31 32 32 31 30 29 29 28 27 26 24 22 19 19 20 21 22
32 32 32 32 32 32 32 32 32 31 31 30 30 29 29 28 27 26 25 24 23 22 21 20 18 18 17 16 16 17 17 17 17 16 14 12 11 10 9 9 8 8 8 8 8 9 9 9 9 9 10 12 13 12 9 2 12 23 26 25 24 22 22 24 23 23 22 21 22 24 25 26 28 28 28 27 27 26 26 25 24 22 21 19 19 20 21 21
35 35 35 35 35 35 35 35 35 34 34 33 33 32 32 31 31 30 29 27 26 25 24 23 21 20 19 18 17 17 19 18 18 18 17 15 14 11 10 10 9 8 8 8 7 8 8 9 9 9 10 11 13 14 13 8 3 16 24 25 23 21 22 23 22 22 21 20 20 21 22 21 22 24 24 25 25 24 24 24 23 21 20 18 18 19 19 19
38 38 38 38 38 38 38 37 37 37 36 36 35 35 34 34 33 33 32 30 29 28 27 26 24 23 21 20 19 18 20 20 20 21 19 18 17 15 12 11 11 10 9 9 8 8 7 8 9 10 10 10 11 13 15 13 5 7 18 23 22 21 22 22 22 22 21 21 19 19 20 19 19 20 22 23 23 23 23 23 22 21 18 16 16 16 16 15
41 41 41 41 40 40 40 40 39 39 38 38 37 37 36 36 35 35 34 33 32 31 30 28 27 26 24 22 21 20 21 22 24 23 20 19 19 19 16 13 12 12 11 10 10 9 8 8 8 9 10 10 10 12 14 14 11 3 10 19 22 21 20 21 22 20 19 18 16 17 18 17 17 18 20 22 22 22 21 21 20 17 15 13 13 13 12 12
41 41 42 42 41 41 41 41 40 40 40 39 38 38 37 37 36 36 35 35 34 33 32 30 29 29 27 25 23 22 22 25 28 25 22 22 21 21 20 18 16 13 13 12 12 11 10 9 8 9 10 11 10 11 12 14 14 9 2 9 18 22 24 25 22 17 16 16 17 17 16 15 15 17 19 20 20 19 19 18 16 14 13 12 12 11 11 10
43 43 43 43 43 42 42 42 41 41 41 40 40 39 38 38 37 36 36 35 35 34 33 32 31 30 29 28 26 25 24 27 30 27 24 25 24 23 23 22 20 17 15 14 13 13 12 10 9 9 10 11 11 10 11 12 14 13 9 3 5 14 20 23 19 15 15 16 18 17 15 13 13 15 17 18 18 18 17 16 15 13 12 11 10 10 11 11
45 45 45 45 45 45 45 45 44 44 44 43 43 42 41 40 39 39 38 37 37 36 35 34 33 31 30 30 29 28 27 28 31 29 26 26 26 25 25 24 24 21 19 17 15 14 14 13 11 9 9 10 11 11 10 11 13 14 13 9 4 2 6 10 12 13 14 16 18 16 14 12 13 15 17 17 18 18 18 16 15 13 11 10 10 11 11 11
46 47 47 47 47 47 47 48 48 47 47 47 46 45 45 44 43 42 41 41 40 39 38 37 35 34 32 31 31 30 28 29 31 31 28 28 28 27 27 26 26 25 23 20 19 17 14 14 13 11 9 9 11 12 11 10 11 13 13 11 8 3 3 5 8 11 13 15 17 16 14 12 13 15 16 17 18 18 17 16 14 12 11 12 12 11 11 11
48 48 49 49 49 49 49 49 49 49 49 49 48 48 48 47 46 46 45 44 43 42 42 41 39 38 36 34 33 32 30 30 31 32 30 30 29 29 28 28 28 28 27 24 22 20 17 15 14 13 11 9 10 11 12 10 9 11 12 12 10 6 2 3 6 8 10 12 14 14 13 13 14 14 15 16 16 17 17 16 14 12 12 13 12 10 9 8
51 51 52 52 52 52 52 52 52 52 51 51 50 50 50 49 48 48 47 47 46 46 45 44 43 42 40 38 37 35 33 32 32 32 32 31 31 30 30 30 30 30 30 28 25 23 21 18 16 15 13 11 10 11 12 11 9 8 10 11 10 8 5 1 3 6 8 9 11 11 12 12 13 13 14 14 15 16 16 15 13 12 13 13 11 8 6 6
54 54 55 55 55 55 55 56 56 56 55 55 54 54 53 53 51 50 49 49 48 48 47 47 46 45 44 42 42 39 36 35 34 33 33 32 32 32 31 31 32 32 32 31 28 25 24 22 20 18 16 14 12 11 11 12 10 8 7 8 9 8 7 5 1 3 6 8 9 9 10 10 11 12 13 13 14 14 14 14 13 12 13 13 10 7 5 6
55 55 56 56 57 57 57 58 58 58 58 58 58 57 57 57 56 55 53 52 51 50 50 49 48 48 47 46 45 43 41 39 37 36 35 34 33 33 33 31 32 33 34 33 32 28 25 24 23 21 18 17 15 13 12 12 11 10 7 6 7 7 6 5 3 1 4 7 8 8 9 9 10 11 11 12 12 13 14 13 12 12 13 13 11 9 6 8
53 53 54 54 55 56 56 57 58 58 59 59 59 59 59 59 59 59 58 57 56 54 53 52 51 50 49 49 48 47 46 44 41 40 38 37 36 35 35 33 33 34 35 34 34 32 28 26 26 24 22 20 18 16 14 12 12 11 9 6 5 5 6 4 3 2 2 5 6 8 9 8 8 9 9 11 12 12 13 13 12 12 13 13 12 10 10 12
50 50 50 51 52 52 53 54 55 56 56 57 58 59 59 60 60 60 60 60 59 58 57 56 55 53 52 52 51 50 50 48 45 44 42 41 39 38 37 36 35 34 35 35 34 35 32 28 28 27 25 23 21 21 19 14 13 13 11 9 6 4 5 4 2 1 2 3 5 6 8 7 6 7 8 11 12 13 13 13 12 13 13 14 14 14 14 15
46 46 46 46 47 48 48 49 50 50 51 52 53 54 55 57 58 59 60 61 60 60 59 59 59 57 56 56 54 53 53 52 49 48 46 45 43 42 40 39 38 36 36 35 35 36 34 31 29 27 27 27 25 26 22 15 14 15 13 11 9 6 5 5 3 1 2 3 3 4 5 5 4 6 9 11 12 13 13 13 13 13 14 15 17 17 16 14
43 43 43 43 43 44 44 44 45 46 46 47 48 48 50 51 53 54 56 58 58 59 59 60 61 59 59 59 57 56 57 55 53 52 50 49 48 46 44 43 41 39 38 37 37 37 36 33 30 28 30 31 29 28 24 18 17 18 15 14 12 9 7 6 5 3 2 4 4 4 4 4 4 5 8 10 12 14 14 13 13 13 15 17 18 18 16 14
41 41 41 41 41 41 42 42 42 43 44 44 45 45 46 47 48 49 51 52 53 55 56 57 60 60 60 61 60 60 60 58 57 56 54 52 51 50 48 47 45 43 41 40 40 39 38 35 32 31 34 33 31 29 25 21 21 22 19 17 15 13 11 9 7 6 5 5 5 5 5 5 6 5 6 9 12 14 15 14 14 14 15 17 18 17 16 13
41 41 41 40 39 40 41 42 41 42 42 43 44 44 45 46 46 46 48 49 49 49 51 52 55 57 58 59 61 61 62 61 60 59 57 56 55 54 53 51 48 47 46 44 42 41 38 35 34 36 37 35 32 31 27 24 25 25 23 20 18 16 14 13 10 7 8 8 7 7 6 6 8 7 7 9 11 14 15 15 15 15 16 17 17 16 14 13
42 42 41 41 39 39 41 42 42 42 42 42 43 43 44 45 45 46 46 47 48 46 47 49 49 52 54 54 57 60 61 63 62 61 61 60 58 57 56 54 52 52 50 47 44 42 38 36 38 41 41 38 33 31 29 27 28 28 26 23 21 19 17 17 13 11 10 10 9 9 9 8 8 9 9 8 10 12 14 15 16 17 16 15 15 14 12 11
44 44 43 42 41 40 41 43 43 42 42 42 42 41 42 43 43 44 44 45 48 46 45 47 47 48 50 50 51 54 58 61 61 62 63 62 61 60 58 58 57 55 53 50 47 45 41 41 44 45 45 40 35 32 31 29 29 30 29 26 26 24 21 20 17 14 12 10 10 10 11 11 9 10 11 12 12 12 13 14 15 16 16 15 13 13 12 10
45 46 46 45 44 42 42 44 44 43 43 42 42 42 41 41 41 41 41 42 46 47 44 43 45 46 47 47 47 49 52 55 57 60 62 63 63 62 61 61 60 57 56 55 52 48 46 47 49 48 47 43 38 34 32 30 29 31 31 29 29 27 26 23 20 18 15 13 12 13 13 13 12 10 11 14 14 12 12 13 14 15 16 15 14 14 13 12
46 47 48 48 48 46 45 46 47 46 46 45 44 44 42 41 40 39 39 38 42 47 44 41 42 44 47 47 45 45 47 49 52 55 57 61 64 63 63 63 62 60 60 59 57 52 51 52 51 49 48 47 42 37 35 32 30 32 34 33 31 30 30 27 23 21 19 17 16 15 14 15 14 11 11 13 14 13 12 13 13 15 15 16 15 15 14 13
48 48 50 50 51 51 49 49 51 51 49 49 48 46 44 44 42 41 40 37 38 43 44 41 41 43 46 46 45 45 44 45 49 50 51 56 61 61 62 63 63 64 63 61 59 56 55 56 54 52 51 51 47 41 38 36 33 32 35 37 34 32 32 30 26 24 23 22 20 17 16 16 15 14 13 14 14 14 13 13 14 14 14 15 14 14 14 14
49 49 51 53 53 55 54 52 53 54 52 53 52 49 48 47 45 44 42 38 37 39 41 42 44 44 45 45 45 46 43 42 45 48 48 50 55 58 60 62 64 65 66 64 61 59 60 60 57 55 55 54 51 45 42 41 38 35 37 40 38 35 35 32 29 27 27 26 23 20 19 18 16 16 15 15 16 16 16 16 16 15 15 15 15 15 14 14
52 51 52 55 55 56 58 56 55 55 55 56 56 53 52 50 48 47 45 41 39 39 39 42 45 45 45 45 45 45 43 41 44 46 46 46 50 53 54 58 61 64 67 66 63 63 64 64 61 59 59 57 53 49 48 47 43 40 42 42 42 40 37 35 32 29 31 30 26 23 22 19 18 17 16 15 16 18 18 18 18 17 16 17 17 16 16 15
55 55 55 57 57 57 59 59 57 57 57 58 59 58 56 54 52 51 48 44 43 44 40 41 45 47 46 46 46 46 43 43 45 45 43 45 48 48 49 53 57 60 64 65 65 66 66 66 65 63 61 58 56 54 54 52 46 45 46 44 45 45 40 36 33 32 34 31 26 26 24 21 20 20 18 16 17 19 20 19 19 19 20 20 20 19 18 18
59 59 58 60 61 60 62 62 60 60 60 60 61 61 60 58 56 55 51 47 48 50 44 40 45 48 48 47 47 48 45 44 46 43 40 44 46 45 47 50 52 55 59 63 66 68 69 69 68 65 63 62 60 59 59 57 51 50 51 47 47 47 43 39 36 36 35 29 27 28 26 24 23 22 20 20 21 21 21 21 21 22 23 23 22 21 21 21
62 62 61 62 64 65 66 65 64 65 64 62 63 64 63 62 61 57 53 51 52 53 49 46 48 50 50 50 49 49 48 48 47 42 39 44 45 43 45 48 49 51 53 58 63 69 71 71 69 67 67 66 65 63 63 60 57 56 55 51 50 48 46 44 40 38 34 28 29 32 30 28 26 25 25 24 25 23 21 22 23 24 24 23 23 23 22 22
65 65 65 65 66 68 70 69 68 69 68 66 66 66 66 66 64 59 56 57 57 56 55 52 51 51 53 54 52 50 50 50 49 44 42 44 44 42 43 45 48 49 50 53 59 65 69 71 71 70 69 69 68 67 66 63 62 63 58 54 53 50 49 47 43 40 34 31 34 35 33 30 28 30 30 29 28 25 24 24 23 24 24 24 24 24 23 23
69 69 69 69 69 70 73 73 72 73 73 72 70 69 69 67 63 60 60 62 60 60 61 57 54 54 55 57 55 53 52 52 51 48 47 47 45 42 41 43 45 46 48 51 54 59 65 69 72 71 71 71 70 70 69 65 66 67 62 58 56 53 51 48 45 43 39 36 39 40 36 31 31 34 33 32 31 29 28 27 25 24 25 25 26 25 24 25
72 72 72 73 72 72 75 76 76 77 77 76 74 73 72 67 63 63 64 65 65 66 65 62 59 58 57 57 58 57 55 53 54 52 51 50 48 44 41 42 43 44 48 50 50 53 59 64 69 72 74 74 73 73 72 70 71 70 67 64 61 57 54 51 49 47 45 43 45 44 38 33 35 36 36 36 35 32 31 30 28 27 26 27 27 26 27 29
76 76 76 77 77 76 77 79 80 81 81 80 79 77 74 69 67 69 69 69 70 71 70 68 65 62 60 59 59 62 60 56 56 57 53 51 51 48 44 43 43 43 45 48 48 50 53 58 64 71 75 76 76 76 76 76 75 73 72 69 64 60 57 56 54 52 50 50 49 44 39 38 39 40 40 39 36 34 33 33 31 29 29 29 29 29 30 31
80 80 81 81 81 81 81 82 84 85 85 85 84 79 75 73 74 75 74 74 74 74 75 74 69 66 66 63 60 62 64 61 60 60 56 54 54 53 49 47 46 44 43 45 47 49 50 53 60 67 72 75 78 79 79 79 78 76 74 71 65 62 62 61 58 56 56 55 50 44 41 42 42 42 42 39 37 37 37 36 35 33 33 33 33 32 31 32
84 85 86 86 86 85 86 86 88 89 89 90 88 82 78 78 78 78 78 78 78 77 78 78 75 71 70 68 64 64 66 66 64 62 60 58 56 55 55 52 50 48 45 44 46 48 49 51 56 61 67 73 78 81 81 81 81 79 75 71 69 68 67 66 62 60 60 56 50 46 45 46 45 44 44 41 40 40 41 40 38 36 36 35 35 34 34 34
89 89 91 92 90 90 91 91 93 94 93 93 90 85 83 83 81 81 81 81 81 81 80 79 79 77 75 72 69 68 69 69 68 66 64 62 58 57 59 58 54 51 50 49 47 47 48 50 53 56 61 68 75 80 82 82 81 80 77 74 73 71 71 71 65 62 61 57 53 51 50 49 47 45 47 45 42 43 44 42 40 39 38 38 37 36 36 36
95 95 97 98 96 95 97 97 98 98 98 97 92 89 88 87 86 84 84 84 84 85 84 81 81 81 80 76 74 74 73 72 71 69 68 66 61 59 60 62 60 56 55 54 51 48 48 48 51 53 56 63 70 75 78 81 81 81 81 79 76 74 76 76 71 65 64 61 57 54 53 51 48 48 49 48 46 46 46 44 43 41 40 40 40 38 37 39
100 100 102 104 103 102 102 102 103 103 102 100 97 94 93 92 91 89 87 87 87 87 86 84 84 84 82 80 78 78 79 78 75 72 71 69 65 63 62 62 63 62 60 58 56 54 52 48 48 52 54 57 62 66 71 79 84 85 85 83 80 77 78 81 77 70 67 66 61 58 56 53 51 51 52 52 50 50 50 47 45 44 42 42 44 42 40 42
106 106 107 110 110 109 108 108 109 108 107 105 102 100 98 97 96 94 92 91 90 90 89 88 88 86 84 83 81 81 83 82 79 76 74 72 68 67 64 63 65 66 64 61 59 59 57 51 48 51 53 52 54 59 67 76 84 87 86 85 84 80 80 84 82 74 70 69 66 63 59 54 54 55 55 56 55 53 53 50 46 46 44 44 48 46 42 44
110 110 112 115 116 115 114 113 113 114 113 110 107 106 105 103 101 99 98 97 96 95 94 93 91 89 88 87 86 86 85 84 83 81 78 74 71 69 69 67 67 69 67 63 62 62 62 57 50 47 49 50 51 56 62 70 78 84 87 86 86 85 83 86 85 78 74 73 71 68 61 56 57 57 57 58 58 57 56 53 50 49 48 48 52 49 44 46
116 115 117 120 121 121 120 118 117 118 118 116 114 113 112 110 108 105 103 103 101 100 100 99 96 93 92 92 92 90 88 87 87 86 82 78 75 72 73 73 71 70 69 66 64 65 64 61 54 47 47 51 52 52 57 64 71 78 83 85 87 87 85 85 84 80 78 77 74 71 65 61 60 60 59 60 61 62 60 56 54 54 52 52 53 51 47 47
121 120 122 125 128 128 126 124 122 123 124 123 121 119 118 117 115 113 110 108 106 105 105 103 101 99 98 97 97 95 92 90 89 88 86 83 81 77 74 76 76 73 71 70 69 68 66 64 59 52 47 50 52 49 51 57 62 69 76 81 85 88 87 87 86 85 83 80 77 75 70 66 63 63 62 63 65 66 63 60 59 58 57 55 54 55 52 48
126 126 127 130 134 135 133 130 129 129 130 130 129 127 125 123 121 118 116 113 112 110 109 108 106 105 104 103 100 98 96 94 92 91 89 88 88 82 77 79 80 76 74 75 72 69 67 66 64 57 50 48 49 47 48 52 57 62 70 77 83 87 90 91 91 90 87 82 81 79 74 70 68 67 67 68 68 67 65 65 63 61 59 57 55 58 57 51
132 131 132 135 138 140 139 136 135 135 136 137 136 134 131 128 125 123 122 120 118 116 115 113 111 110 109 107 104 102 101 99 97 95 93 93 92 87 82 83 84 79 77 78 76 73 71 69 64 59 53 49 48 49 51 52 55 58 64 72 79 85 89 93 94 93 89 86 85 82 78 76 74 72 71 71 69 68 67 67 67 64 61 60 59 61 60 54
138 138 138 140 142 143 143 142 141 141 141 141 140 137 134 132 131 129 128 127 126 124 122 120 118 116 114 111 109 107 105 104 103 101 98 97 96 92 87 88 87 82 79 79 79 77 75 71 66 62 58 54 52 53 55 53 54 56 59 65 74 81 86 91 94 93 91 90 88 84 81 81 79 75 74 73 71 70 69 68 69 69 66 65 65 64 61 57
141 141 140 141 143 143 143 144 144 143 143 142 141 138 136 136 136 135 134 134 132 131 130 127 126 123 119 117 115 112 110 109 108 106 104 102 100 97 93 91 90 86 81 82 82 80 77 74 69 65 62 60 58 57 57 55 54 57 57 60 67 75 81 86 90 92 93 93 89 86 85 84 81 79 79 77 74 74 71 69 71 73 71 70 68 65 63 62
140 140 139 139 139 139 140 142 143 142 142 141 140 139 137 137 139 139 138 138 137 136 135 133 131 129 125 122 120 118 115 113 112 111 109 106 104 102 98 95 94 91 85 83 84 84 79 76 73 68 65 64 62 59 59 58 56 58 57 56 60 68 74 80 84 88 93 94 91 88 88 87 84 82 83 81 79 78 74 72 74 75 75 75 70 65 64 64
132 131 129 128 127 127 128 130 132 133 133 133 133 133 133 134 137 138 139 140 140 139 139 137 134 131 128 125 124 122 120 118 118 116 115 113 109 106 102 97 95 93 88 85 86 85 81 78 76 72 68 66 64 63 63 61 58 58 57 54 55 61 67 73 78 82 88 92 93 91 91 90 87 85 86 85 84 82 78 76 76 76 76 78 75 69 67 67
117 114 113 112 111 110 111 113 115 117 118 118 119 120 121 124 128 132 136 138 139 140 141 140 137 134 131 129 128 127 125 123 121 119 117 115 110 105 101 96 93 90 86 86 89 88 83 81 79 76 73 67 64 65 65 64 63 60 55 52 53 56 59 64 71 78 83 88 92 94 93 90 89 89 89 88 87 86 83 80 78 77 78 80 78 73 70 70
102 101 100 99 98 99 100 101 103 105 105 106 106 107 108 110 114 119 123 127 131 136 139 138 136 135 134 133 132 130 128 124 121 119 117 115 111 107 104 100 97 93 88 88 90 88 84 81 80 80 76 70 66 66 68 72 69 57 48 48 53 57 58 59 65 73 80 85 90 93 94 93 93 94 93 90 89 89 87 84 81 79 80 81 80 76 73 74
Wind_Direction
261 262 263 264 265 266 267 268 270 271 272 273 273 275 276 278 280 282 284 286 288 293 299 305 310 315 321 326 331 336 342 350 355 359 3 8 18 26 33 38 43 51 57 59 59 61 64 64 62 62 48 3 235 230 227 227 223 215 218 224 227 236 240 243 248 250 252 249 243 243 246 247 248 248 248 249 251 252 253 254 255 257 259 260 262 264 266 267
264 264 265 265 266 266 268 268 269 270 271 272 273 273 274 275 277 279 282 283 285 285 288 293 298 303 308 314 319 323 328 333 339 344 347 350 357 7 16 25 30 37 46 52 55 54 56 61 64 63 47 30 14 259 231 226 221 216 220 227 229 235 242 243 248 252 254 250 243 241 245 246 247 247 248 249 250 251 253 255 256 258 259 258 259 260 263 265
264 264 265 266 266 267 267 268 268 269 270 270 272 273 273 274 274 275 277 279 281 282 283 284 288 292 297 301 307 312 316 321 324 327 331 335 339 345 354 4 12 20 27 38 45 47 45 48 56 61 51 36 25 13 288 224 220 216 216 225 230 234 242 246 250 254 254 250 243 241 243 244 245 246 247 249 251 252 254 256 257 258 257 256 256 256 260 263
264 265 265 266 266 267 267 268 268 269 269 269 270 271 272 273 273 273 274 274 275 277 278 279 280 284 288 292 296 300 304 309 312 312 316 320 323 326 331 340 348 357 5 16 26 33 36 34 37 44 46 39 28 19 10 291 218 213 211 221 232 234 239 245 251 256 255 250 244 242 243 243 244 245 247 248 250 251 252 253 253 253 253 254 255 254 257 259
266 266 266 267 267 267 268 268 268 269 269 270 270 270 271 272 272 272 272 273 273 273 273 275 275 276 279 283 287 291 293 298 300 299 304 308 310 311 313 321 327 334 341 350 2 12 22 22 22 26 33 38 31 22 14 9 224 209 210 219 230 234 237 243 252 255 250 246 244 244 244 245 245 245 247 247 247 247 246 247 246 246 246 246 249 253 255 255
268 268 268 268 268 268 268 268 269 269 269 270 270 270 271 271 272 272 272 271 271 271 271 271 272 272 272 274 278 281 284 288 288 288 295 299 301 301 301 307 313 318 323 327 336 347 0 9 11 10 17 29 32 27 17 12 8 215 215 221 229 239 245 248 254 255 248 243 244 246 244 244 245 245 246 244 243 242 242 242 241 241 241 240 244 249 249 246
268 268 268 268 268 268 268 268 269 269 269 269 269 269 270 270 271 271 272 271 271 271 270 269 269 270 269 268 270 271 276 278 278 281 288 290 292 294 296 298 302 306 310 313 318 325 337 348 358 359 1 12 25 28 21 14 12 352 221 223 229 239 245 248 254 252 244 240 238 241 238 236 238 241 242 240 240 239 240 240 238 236 234 231 233 236 235 232
267 267 267 267 267 267 267 267 267 268 268 268 268 268 268 268 269 269 270 271 271 270 270 269 268 268 268 266 266 265 266 269 271 277 280 281 283 288 292 294 295 296 299 302 306 310 318 327 340 349 350 355 9 23 24 16 12 14 346 227 227 235 239 245 251 242 231 228 226 227 226 225 231 237 238 237 236 235 235 232 227 224 219 216 220 228 230 231
266 266 266 266 266 266 267 267 266 266 267 267 267 266 266 267 267 267 268 268 269 269 268 268 267 267 266 265 264 261 260 263 268 272 272 275 280 282 285 288 290 291 291 292 295 300 305 311 321 332 340 344 351 6 19 19 12 12 18 17 226 231 238 243 240 224 221 220 215 212 211 216 228 235 236 234 231 227 223 216 209 209 208 209 218 228 235 237
265 266 266 266 266 266 266 266 266 266 265 265 266 265 265 265 265 265 265 266 266 267 266 266 266 265 264 264 262 260 258 259 264 267 268 271 274 277 279 282 285 286 286 286 287 290 295 300 305 314 326 334 338 347 4 16 13 10 16 24 27 206 212 223 219 213 222 222 213 207 203 212 222 227 228 225 222 218 212 204 198 200 205 211 218 226 234 237
265 265 265 265 265 265 266 265 265 265 265 265 264 264 264 264 264 264 264 264 264 264 265 264 264 263 262 261 260 259 258 257 260 263 264 265 268 270 273 276 278 280 280 281 282 283 286 289 293 298 309 321 328 333 346 4 12 8 11 21 26 41 138 174 197 207 218 221 216 208 201 206 213 218 219 217 215 211 208 202 195 195 203 211 212 219 227 232
267 267 267 266 266 266 265 265 265 265 264 264 264 263 263 263 262 262 262 262 262 262 262 262 262 262 260 259 258 257 257 255 257 259 260 260 262 264 267 269 271 273 275 275 277 279 279 281 284 288 293 304 316 323 329 344 3 8 5 12 23 26 59 171 189 197 204 210 210 203 198 201 206 212 215 215 214 212 208 202 195 193 203 210 208 211 220 228
269 269 268 268 268 267 267 267 266 266 265 264 264 263 263 262 261 260 260 260 261 260 260 260 260 260 259 258 257 256 255 254 254 256 257 257 258 259 260 263 265 267 270 270 271 273 275 275 277 280 284 289 299 309 316 325 341 0 3 3 11 20 24 42 195 197 199 204 205 200 196 199 203 206 211 215 215 214 210 203 194 194 204 206 200 197 204 217
270 270 270 270 269 269 269 268 268 267 267 266 265 264 263 262 261 260 259 259 259 259 258 259 258 258 257 257 257 256 253 252 252 252 254 255 255 257 256 258 261 263 265 267 268 268 271 272 273 274 277 281 284 291 302 309 319 334 353 358 0 6 17 21 18 205 210 212 212 206 197 199 205 205 208 214 217 216 213 204 191 191 202 199 183 170 174 192
270 270 271 270 270 270 269 269 269 268 268 267 266 265 265 264 263 261 260 258 258 257 257 257 257 256 256 255 255 255 253 251 251 250 251 252 253 254 255 255 256 259 261 264 266 266 267 268 270 270 272 274 275 277 284 292 301 310 325 343 347 352 5 17 31 153 206 213 217 212 198 195 203 208 212 217 218 218 215 202 186 190 196 182 158 145 159 174
271 271 271 271 270 270 270 270 270 269 269 268 267 266 266 265 264 263 261 260 258 257 256 255 255 255 255 254 254 253 252 250 249 249 248 249 250 251 253 253 252 255 258 260 264 265 264 265 267 268 268 268 270 270 269 273 284 292 302 314 325 340 349 359 30 73 176 195 205 207 198 196 204 211 215 221 219 213 208 194 182 185 183 166 146 139 150 157
271 270 271 271 271 271 271 271 270 270 270 270 269 268 267 266 265 264 263 261 260 258 257 256 254 253 253 253 253 253 251 250 248 248 247 247 247 248 250 251 251 252 255 258 260 262 262 261 262 264 265 266 267 266 261 260 271 278 285 292 297 315 321 324 1 80 126 165 186 195 198 202 213 220 217 218 212 200 193 186 176 175 169 154 142 139 143 145
271 271 271 271 272 273 273 273 273 272 272 271 271 270 269 268 267 266 265 263 261 260 258 257 255 253 252 251 251 252 252 250 248 246 246 246 245 246 247 249 249 250 251 254 256 258 260 259 259 262 264 263 261 260 258 257 263 267 270 276 281 281 278 290 295 230 138 148 167 176 187 187 205 225 211 205 198 187 181 175 169 165 157 148 141 140 141 141
272 272 272 273 273 274 275 275 275 275 275 275 274 273 272 271 270 269 267 265 264 262 260 258 257 254 252 251 250 250 251 250 249 247 244 244 244 244 244 246 247 247 248 250 252 255 257 257 258 259 259 257 257 257 257 256 258 261 261 264 269 270 264 264 267 255 198 170 169 169 171 170 186 202 190 191 188 177 172 168 162 158 153 149 146 145 143 143
271 272 272 273 273 274 275 276 276 277 277 277 277 277 276 275 274 273 271 269 267 265 263 261 259 256 254 253 251 249 249 249 248 248 245 243 243 243 242 243 244 245 245 246 248 250 253 256 257 256 255 255 255 257 257 255 256 257 256 255 258 262 263 257 249 253 242 208 189 186 178 170 181 184 171 187 191 175 168 165 159 159 159 157 156 155 152 153
271 272 272 272 272 273 274 275 275 275 276 277 277 277 277 277 277 276 275 274 272 269 267 264 262 260 256 254 253 250 248 247 247 247 247 244 242 242 241 241 242 243 243 243 245 248 251 254 255 253 252 251 252 254 254 253 253 254 252 252 252 253 258 257 245 242 244 231 209 196 192 180 178 187 181 186 193 179 169 166 162 165 169 167 167 168 166 166
274 274 274 274 274 274 276 277 276 275 275 276 276 276 276 276 276 276 275 275 275 273 271 269 266 264 260 256 255 253 250 248 246 245 246 245 243 241 241 240 240 241 241 241 243 246 248 249 250 250 250 248 247 250 251 250 251 253 252 251 251 249 249 252 246 237 236 233 227 209 202 196 181 185 186 188 202 192 176 170 169 172 178 179 178 177 178 178
275 275 275 276 276 276 278 279 279 279 279 278 277 276 275 275 274 274 273 273 273 274 272 271 270 267 264 260 258 256 253 250 248 245 244 244 244 242 241 240 239 239 240 240 240 241 242 244 245 247 248 248 245 246 248 248 249 253 254 251 250 249 247 247 247 244 238 232 235 226 210 204 195 189 186 192 205 200 187 181 178 179 183 187 188 187 190 194
276 276 276 276 276 277 278 279 280 281 282 282 281 280 278 277 275 274 273 271 272 272 269 269 270 267 266 264 261 260 257 253 250 247 245 244 243 242 241 240 239 238 238 239 238 237 239 241 243 246 248 249 246 244 246 247 248 251 253 251 249 250 248 244 243 244 241 234 231 230 222 214 207 201 192 195 200 199 198 197 191 189 191 193 197 201 203 204
277 277 277 276 276 277 278 279 281 281 282 282 282 282 282 281 279 277 274 272 272 272 269 267 267 266 266 266 264 262 261 259 254 250 247 245 243 241 241 240 240 238 237 237 237 235 237 240 242 244 247 249 247 243 243 243 244 248 252 252 249 249 248 244 240 241 241 237 232 228 229 227 219 213 206 201 201 203 206 209 205 200 200 201 202 207 207 203
277 277 277 277 277 277 278 279 280 281 282 282 281 281 281 281 281 280 277 275 274 275 273 268 265 265 265 265 263 262 261 261 259 254 250 248 245 242 241 240 239 238 237 236 235 235 236 238 240 242 245 246 245 242 242 241 241 243 249 252 250 247 248 245 240 239 240 238 236 231 229 233 231 224 216 206 204 207 208 215 221 213 207 208 206 208 209 204
277 277 277 277 277 278 278 278 279 280 281 281 280 280 280 280 280 280 279 278 277 277 278 273 267 264 265 265 263 261 260 259 260 258 254 251 249 244 242 240 239 238 237 235 234 234 235 237 237 239 242 243 244 243 242 241 238 237 241 247 250 247 246 246 241 238 239 238 235 233 231 230 232 231 226 215 208 208 209 212 221 222 215 214 212 209 213 213
280 279 278 278 278 278 279 278 277 279 279 279 279 279 279 279 279 278 279 280 279 278 277 276 273 268 265 264 263 261 258 256 257 258 258 256 253 248 244 242 240 238 238 236 234 233 234 236 235 237 239 241 243 242 241 239 235 235 236 241 246 246 244 244 243 239 239 239 235 235 235 233 233 234 231 224 215 213 215 213 216 224 223 218 217 214 216 223
281 281 280 280 279 279 279 279 278 278 278 278 278 278 277 277 277 277 278 280 280 276 274 276 277 273 268 265 264 262 258 255 256 257 258 257 255 252 249 245 241 239 238 236 234 233 233 235 234 235 237 240 242 243 242 239 235 235 236 237 242 246 245 243 243 242 240 239 237 237 237 236 237 237 234 231 224 219 219 217 215 223 227 223 221 219 220 223
281 281 280 280 280 280 279 279 279 278 277 277 277 277 276 276 276 276 279 280 278 275 275 274 274 274 272 268 265 263 260 258 257 255 255 256 255 255 253 250 245 242 239 236 234 233 233 233 233 234 235 237 239 241 242 241 237 237 237 235 238 243 245 244 242 242 242 241 241 239 237 235 237 238 236 234 231 225 222 220 217 219 226 227 225 224 224 224
281 280 279 278 279 279 278 278 279 278 277 277 276 275 275 274 274 276 279 277 274 274 275 272 270 272 273 271 267 264 262 260 258 255 254 255 254 253 255 254 250 245 241 238 235 233 232 232 233 233 233 235 237 239 241 241 240 239 236 235 237 240 242 243 242 242 242 244 245 243 239 235 236 239 238 236 234 230 227 226 224 223 225 229 230 230 230 228
281 280 279 278 278 278 278 278 279 278 278 277 276 275 274 273 276 278 276 272 271 272 271 270 270 271 272 271 269 267 265 263 260 257 257 256 253 251 253 255 255 250 244 240 237 235 233 232 232 232 232 234 236 237 239 241 241 240 236 234 236 238 241 243 244 244 243 243 245 244 240 235 235 239 239 238 237 233 231 230 229 229 229 228 231 233 233 232
280 280 280 279 278 278 278 278 278 278 278 277 276 275 274 274 278 276 271 269 270 269 268 269 268 268 269 270 270 268 267 266 264 260 260 259 255 251 252 254 256 256 251 243 238 236 234 232 231 231 232 233 234 237 238 239 241 241 238 235 235 236 240 242 244 245 243 242 243 242 241 236 235 238 238 239 240 237 234 233 230 230 232 232 232 232 233 234
279 279 279 279 278 278 277 278 278 278 277 276 276 275 275 277 277 273 269 269 268 266 266 267 266 265 266 268 270 269 267 266 267 263 260 260 258 254 253 255 255 256 256 250 243 238 235 233 232 230 231 231 232 235 236 236 238 240 238 236 233 233 235 238 239 240 240 239 240 241 240 237 235 235 236 237 238 237 237 236 233 230 232 235 235 233 235 236
279 279 279 278 277 277 277 277 277 277 276 276 275 275 276 277 275 271 269 268 266 266 265 265 264 265 265 264 266 269 268 266 266 265 261 261 261 257 255 256 256 254 256 256 251 245 237 234 233 230 229 230 231 233 234 235 236 238 239 236 233 233 233 234 235 237 237 237 238 238 239 239 236 234 235 235 237 238 238 238 237 233 233 234 234 234 236 237
279 279 279 278 277 276 276 276 275 275 275 275 275 275 276 275 272 271 270 267 266 265 265 264 263 263 264 263 260 263 267 266 265 264 263 262 262 261 258 257 258 256 255 256 256 252 244 236 233 232 230 230 231 232 233 235 236 237 239 238 236 237 236 233 234 236 236 237 237 237 237 240 240 239 239 237 237 238 239 239 238 236 234 233 233 235 236 239
278 278 278 277 277 276 276 275 274 274 274 274 275 276 275 273 271 270 269 267 265 263 263 264 263 262 262 262 259 259 261 264 265 265 264 262 262 263 262 258 258 258 257 257 256 255 252 244 236 232 231 230 231 232 232 234 235 236 238 239 238 237 236 233 231 234 236 237 237 236 235 237 240 242 244 241 237 238 239 240 239 238 238 237 237 237 238 240
277 277 277 276 276 276 275 274 274 273 273 273 275 275 273 272 270 268 266 265 263 262 262 262 263 262 260 260 260 259 259 261 263 264 264 263 262 262 263 261 258 257 259 259 256 254 254 252 244 234 231 231 231 232 233 233 235 236 237 238 238 238 238 235 231 233 237 236 237 237 236 237 239 241 244 244 240 239 240 241 241 240 241 242 241 240 241 243
277 277 277 276 276 275 275 274 274 273 273 274 274 272 270 269 268 266 265 264 263 262 262 261 261 261 260 259 259 259 259 259 260 262 263 263 262 260 261 262 260 258 258 258 257 255 252 253 252 242 233 231 231 232 234 234 234 236 236 236 237 237 239 238 233 232 236 236 235 237 237 238 239 240 242 244 242 241 241 241 241 241 241 243 244 243 243 245
276 277 277 276 276 275 275 274 273 273 273 273 272 270 269 268 267 265 263 262 262 262 261 260 259 259 259 259 258 258 258 258 257 259 260 261 262 260 259 261 261 259 258 257 258 257 253 250 253 250 240 234 232 232 235 235 233 234 234 235 235 235 238 240 235 231 233 235 234 235 237 237 239 240 241 242 242 241 242 242 241 242 242 244 247 245 243 246
275 275 275 275 275 275 274 274 273 273 272 272 271 270 268 267 265 264 262 261 260 260 260 259 258 258 258 258 257 256 257 257 257 257 257 258 259 260 259 258 259 259 258 257 257 259 256 249 249 254 248 239 233 231 233 236 234 233 233 234 234 234 236 239 237 232 232 235 234 233 235 237 238 240 241 243 243 243 244 244 242 242 242 242 245 245 244 247
273 274 274 274 274 274 273 273 273 273 272 272 271 269 267 266 265 263 262 260 259 259 259 258 257 257 257 257 256 255 255 256 257 257 256 256 256 257 257 256 256 259 259 258 257 259 259 252 246 251 254 246 237 233 233 236 236 235 233 233 234 234 235 239 240 236 233 234 234 232 232 234 238 240 242 244 245 243 243 244 243 242 242 242 245 245 243 246
271 271 272 272 272 272 271 271 271 271 271 270 269 268 267 266 265 264 262 261 260 259 258 258 257 256 255 255 255 255 254 255 256 256 256 255 254 253 254 255 255 256 258 258 258 258 260 257 248 246 253 251 242 236 236 237 238 237 235 234 235 235 235 238 241 240 236 234 234 233 231 231 234 238 239 241 243 243 243 242 242 242 242 242 246 248 244 244
270 270 270 270 270 270 269 269 269 269 269 268 268 267 266 265 265 264 263 261 260 259 258 257 257 255 254 253 253 254 254 253 254 255 256 255 254 251 251 253 254 254 256 257 258 259 259 259 254 246 247 252 248 242 241 240 240 240 238 235 235 236 235 236 237 238 238 236 235 234 231 230 232 235 236 237 239 242 244 243 242 242 242 243 246 250 249 244
269 269 268 268 269 269 268 268 268 268 268 268 267 266 265 265 265 264 263 261 260 258 257 256 255 254 254 253 253 253 253 253 253 253 254 254 254 252 250 252 253 253 254 255 257 259 259 259 258 250 246 250 252 249 246 244 241 239 238 236 234 235 235 234 235 236 237 236 235 233 231 230 232 233 235 235 236 239 242 244 243 242 243 243 243 247 250 247
271 270 269 269 269 269 269 268 268 267 267 266 266 266 266 265 264 262 261 260 259 258 257 255 254 254 253 253 253 253 253 253 252 252 252 252 253 252 250 251 252 251 251 254 256 257 258 258 259 256 250 248 251 252 249 246 243 241 239 237 235 234 235 235 235 235 235 236 236 234 230 230 231 233 234 236 237 238 241 243 246 245 244 243 242 244 248 249
272 271 270 269 269 269 269 268 267 266 266 265 265 265 265 264 263 261 260 259 258 257 256 255 254 253 253 253 252 252 251 252 252 251 251 251 252 252 250 250 252 251 250 252 254 255 257 258 258 259 255 250 250 252 251 248 246 244 241 239 237 235 235 236 236 235 235 235 236 235 232 231 231 233 235 236 236 238 239 242 245 246 245 243 242 243 246 248
273 272 271 270 269 269 268 268 267 266 265 265 264 263 263 262 261 260 259 259 258 257 256 255 255 254 253 252 251 250 250 250 251 251 251 251 251 252 251 250 252 252 250 250 252 254 256 257 257 257 257 253 250 250 251 250 248 247 244 241 240 238 236 236 236 236 236 235 236 236 235 233 232 233 235 236 236 236 237 238 241 244 245 244 243 243 245 246
275 274 272 271 270 269 268 268 267 266 265 264 263 262 260 259 259 258 258 257 257 256 256 255 254 254 253 252 251 251 250 250 250 250 250 251 251 251 251 251 252 254 251 249 251 253 254 256 257 256 255 254 252 250 251 251 250 249 246 244 243 241 238 237 236 237 238 237 235 236 237 235 233 233 235 235 235 236 235 235 237 241 243 245 244 243 243 244
276 275 274 272 271 270 268 267 267 266 264 263 262 261 259 258 257 256 256 255 254 254 254 253 253 253 252 251 251 251 250 250 249 249 249 250 250 250 252 252 254 255 253 250 251 253 253 254 255 255 254 253 252 252 252 251 250 249 248 246 245 244 241 239 237 237 238 238 236 235 236 236 235 234 235 236 236 236 235 234 235 238 241 244 245 243 244 245
277 276 274 273 271 270 268 267 266 264 263 262 261 259 258 256 255 254 253 253 252 252 252 252 252 251 251 250 249 249 249 249 249 250 251 253 254 255 255 256 256 256 254 251 251 252 253 253 254 254 254 252 252 253 253 253 250 248 247 248 250 249 246 243 241 238 237 237 237 235 235 236 236 235 234 236 237 237 237 235 235 237 239 242 244 244 244 245
277 275 274 272 271 269 267 265 264 263 262 261 259 258 256 254 253 252 251 251 250 250 250 250 250 250 249 248 248 248 248 248 249 249 251 253 254 256 257 257 257 257 256 253 251 251 252 252 252 253 253 252 252 251 252 253 251 246 246 251 252 250 246 243 242 240 238 237 237 236 235 234 236 235 234 234 236 237 238 237 236 236 238 241 244 244 244 245
Height
10994 10994 10994 10995 10995 10995 10995 10995 10995 10996 10996 10996 10997 10997 10997 10997 10997 10997 10998 10998 10999 10999 10998 10998 10998 10998 10997 10997 10996 10996 10996 10996 10996 10995 10995 10995 10994 10994 10993 10993 10992 10992 10991 10990 10990 10989 10989 10988 10987 10986 10986 10986 10985 10985 10984 10984 10984 10984 10983 10983 10984 10984 10983 10982 10982 10984 10985 10985 10986 10987 10988 10989 10991 10992 10993 10994 10994 10995 10995 10996 10996 10996 10997 10997 10996 10995 10994 10993
10992 10992 10993 10993 10993 10993 10993 10993 10994 10994 10994 10995 10995 10995 10995 10996 10996 10996 10996 10997 10998 10998 10998 10998 10998 10998 10997 10997 10996 10996 10996 10996 10996 10995 10995 10995 10994 10994 10994 10993 10993 10993 10992 10991 10991 10990 10989 10989 10988 10987 10987 10986 10985 10984 10983 10982 10982 10983 10982 10982 10982 10982 10982 10981 10980 10981 10983 10983 10984 10985 10986 10987 10988 10989 10991 10992 10992 10993 10993 10994 10994 10995 10996 10996 10995 10993 10992 10992
10990 10990 10990 10990 10991 10991 10991 10991 10991 10992 10992 10993 10993 10993 10993 10994 10994 10995 10995 10995 10996 10996 10997 10997 10997 10997 10997 10997 10996 10996 10995 10995 10995 10995 10995 10995 10994 10994 10994 10993 10993 10993 10992 10992 10991 10990 10990 10989 10988 10988 10987 10986 10985 10983 10982 10981 10980 10981 10981 10981 10980 10981 10981 10980 10979 10980 10981 10981 10982 10983 10984 10985 10986 10987 10989 10990 10990 10991 10991 10992 10992 10993 10994 10993 10993 10992 10991 10991
10987 10988 10988 10988 10988 10988 10988 10989 10989 10989 10990 10990 10991 10991 10991 10991 10992 10993 10993 10994 10994 10995 10995 10996 10996 10996 10996 10997 10996 10995 10995 10995 10994 10994 10994 10994 10994 10994 10994 10993 10993 10993 10992 10992 10991 10991 10990 10989 10988 10987 10986 10985 10984 10983 10981 10980 10979 10979 10979 10979 10978 10979 10979 10978 10978 10979 10979 10980 10980 10981 10982 10983 10984 10985 10987 10988 10988 10989 10990 10990 10991 10991 10991 10991 10991 10991 10990 10990
10984 10984 10985 10985 10985 10985 10985 10986 10986 10986 10987 10987 10988 10988 10988 10989 10989 10990 10991 10991 10992 10993 10994 10994 10995 10995 10996 10996 10996 10995 10994 10994 10993 10992 10993 10993 10993 10993 10993 10993 10993 10993 10992 10992 10991 10991 10990 10989 10988 10987 10986 10984 10983 10982 10981 10980 10978 10978 10978 10978 10977 10977 10976 10976 10976 10977 10978 10978 10978 10979 10980 10981 10982 10983 10984 10985 10986 10987 10988 10988 10988 10989 10989 10989 10989 10989 10989 10989
10981 10981 10981 10981 10982 10982 10982 10982 10983 10983 10984 10984 10985 10985 10986 10986 10986 10987 10987 10988 10989 10990 10991 10992 10992 10993 10994 10995 10995 10995 10993 10992 10992 10991 10991 10992 10992 10992 10992 10993 10993 10992 10992 10991 10991 10991 10990 10989 10988 10987 10985 10984 10983 10982 10981 10980 10978 10977 10977 10977 10976 10976 10975 10975 10975 10975 10976 10977 10978 10978 10979 10979 10980 10981 10983 10983 10984 10985 10986 10986 10986 10987 10987 10987 10988 10988 10988 10988
10978 10978 10978 10978 10978 10978 10979 10979 10979 10980 10980 10981 10982 10982 10982 10983 10983 10984 10984 10985 10986 10987 10988 10989 10990 10991 10992 10993 10993 10994 10993 10991 10989 10989 10990 10991 10990 10990 10991 10992 10992 10992 10991 10991 10991 10990 10990 10989 10988 10987 10985 10984 10983 10981 10980 10980 10979 10977 10976 10975 10975 10975 10974 10974 10974 10974 10974 10976 10977 10977 10977 10978 10979 10980 10981 10982 10982 10983 10984 10984 10985 10985 10985 10986 10986 10987 10987 10987
10974 10974 10974 10974 10974 10974 10975 10975 10976 10976 10976 10977 10978 10978 10979 10979 10980 10980 10981 10981 10982 10983 10984 10986 10987 10988 10989 10990 10991 10992 10991 10989 10986 10988 10989 10989 10989 10989 10989 10990 10990 10991 10991 10990 10990 10990 10990 10989 10988 10987 10986 10985 10983 10982 10980 10979 10979 10977 10975 10974 10974 10973 10973 10973 10973 10973 10973 10974 10975 10976 10976 10977 10978 10979 10980 10980 10981 10981 10982 10983 10983 10984 10984 10984 10985 10985 10986 10986
10970 10970 10970 10970 10970 10970 10971 10971 10972 10972 10972 10973 10974 10975 10975 10976 10977 10977 10978 10978 10979 10979 10980 10982 10983 10984 10985 10987 10988 10988 10989 10987 10984 10987 10988 10987 10988 10988 10988 10988 10988 10989 10989 10989 10989 10989 10989 10988 10988 10987 10986 10985 10983 10982 10980 10979 10978 10977 10975 10973 10972 10972 10971 10971 10971 10972 10972 10973 10974 10974 10975 10976 10977 10978 10978 10979 10979 10980 10981 10981 10982 10982 10983 10983 10984 10984 10985 10985
10966 10965 10965 10965 10966 10966 10966 10967 10967 10968 10968 10969 10969 10970 10971 10972 10973 10973 10974 10975 10975 10976 10977 10978 10979 10981 10982 10983 10984 10985 10986 10985 10982 10984 10986 10986 10986 10986 10986 10986 10986 10987 10987 10988 10988 10988 10988 10988 10987 10987 10986 10985 10983 10982 10981 10979 10978 10977 10975 10973 10972 10971 10970 10970 10970 10971 10972 10972 10973 10973 10974 10975 10976 10976 10977 10978 10979 10979 10980 10980 10980 10981 10981 10982 10982 10983 10984 10984
10961 10961 10961 10961 10961 10961 10961 10962 10962 10962 10963 10964 10965 10965 10966 10967 10968 10969 10970 10970 10971 10972 10973 10974 10975 10977 10978 10979 10980 10981 10983 10983 10981 10982 10984 10984 10984 10984 10984 10984 10984 10984 10985 10986 10986 10986 10987 10987 10986 10986 10986 10985 10983 10982 10981 10980 10978 10977 10975 10974 10973 10972 10970 10970 10970 10970 10971 10972 10972 10972 10973 10974 10975 10976 10977 10977 10978 10978 10979 10979 10979 10980 10980 10981 10981 10982 10983 10983
10956 10956 10956 10956 10956 10956 10956 10956 10957 10957 10958 10959 10959 10960 10961 10962 10963 10964 10965 10966 10967 10968 10969 10970 10971 10972 10974 10975 10976 10977 10979 10979 10979 10979 10980 10981 10981 10982 10982 10982 10982 10982 10982 10983 10984 10984 10985 10985 10985 10985 10985 10984 10983 10982 10981 10980 10978 10977 10976 10974 10974 10972 10971 10970 10970 10970 10971 10972 10972 10972 10972 10973 10973 10974 10976 10976 10977 10977 10978 10978 10978 10978 10979 10980 10981 10981 10982 10982
10950 10950 10950 10950 10950 10950 10951 10951 10951 10951 10952 10953 10954 10954 10955 10956 10958 10959 10960 10961 10961 10963 10964 10965 10966 10967 10969 10971 10971 10973 10975 10976 10976 10976 10977 10978 10978 10978 10979 10979 10979 10979 10979 10980 10981 10982 10983 10983 10984 10984 10984 10983 10983 10982 10980 10980 10979 10977 10976 10975 10974 10973 10972 10971 10971 10971 10971 10971 10972 10972 10972 10972 10973 10974 10975 10975 10976 10977 10977 10977 10977 10978 10979 10979 10980 10980 10981 10981
10944 10944 10944 10944 10944 10944 10944 10944 10944 10945 10946 10947 10948 10948 10949 10950 10951 10953 10954 10955 10956 10957 10959 10960 10961 10962 10964 10966 10966 10968 10971 10971 10972 10973 10973 10974 10974 10975 10976 10976 10976 10976 10976 10977 10978 10980 10981 10981 10982 10982 10982 10982 10982 10981 10980 10979 10978 10977 10976 10975 10975 10974 10972 10972 10971 10971 10971 10971 10971 10971 10972 10973 10973 10973 10974 10975 10975 10976 10977 10977 10976 10977 10978 10978 10978 10979 10980 10981
10938 10938 10937 10937 10937 10937 10937 10937 10938 10938 10939 10940 10941 10942 10942 10943 10944 10946 10948 10949 10950 10952 10953 10955 10956 10957 10958 10960 10960 10963 10965 10966 10968 10969 10970 10971 10971 10971 10972 10973 10974 10973 10973 10974 10975 10977 10978 10979 10980 10980 10981 10981 10981 10980 10980 10979 10978 10977 10977 10976 10975 10974 10973 10972 10972 10971 10971 10971 10971 10971 10971 10972 10973 10973 10973 10974 10974 10975 10976 10976 10976 10977 10977 10977 10977 10978 10980 10981
10932 10932 10931 10931 10931 10931 10931 10931 10931 10932 10932 10933 10934 10935 10935 10936 10937 10938 10940 10942 10944 10945 10947 10949 10950 10951 10953 10954 10955 10957 10959 10961 10963 10965 10966 10967 10967 10968 10968 10969 10970 10970 10970 10971 10972 10973 10975 10977 10977 10978 10979 10979 10979 10979 10979 10978 10977 10977 10976 10976 10975 10974 10974 10973 10972 10971 10971 10971 10971 10971 10971 10971 10972 10972 10973 10974 10974 10975 10976 10976 10976 10976 10977 10977 10977 10978 10979 10981
10926 10926 10926 10925 10925 10925 10925 10925 10925 10926 10926 10926 10927 10928 10928 10929 10930 10931 10932 10934 10936 10938 10940 10942 10942 10945 10947 10947 10949 10951 10952 10954 10958 10959 10961 10962 10963 10963 10964 10965 10966 10967 10967 10968 10969 10969 10971 10974 10975 10976 10977 10977 10977 10977 10976 10977 10977 10976 10976 10975 10974 10974 10974 10973 10972 10971 10971 10970 10971 10971 10971 10971 10971 10972 10973 10974 10974 10974 10975 10975 10976 10976 10977 10977 10977 10978 10980 10981
10921 10921 10921 10920 10920 10919 10920 10920 10920 10920 10920 10920 10920 10921 10921 10922 10923 10924 10924 10926 10928 10930 10932 10933 10934 10938 10940 10940 10943 10944 10944 10947 10951 10953 10955 10956 10958 10959 10960 10961 10962 10963 10964 10965 10966 10965 10967 10970 10972 10974 10974 10974 10974 10973 10974 10976 10976 10975 10975 10975 10974 10974 10973 10973 10973 10972 10971 10970 10971 10971 10971 10971 10971 10972 10973 10974 10974 10974 10975 10975 10976 10977 10977 10977 10977 10978 10980 10982
10916 10916 10917 10916 10916 10915 10915 10915 10915 10915 10915 10915 10915 10916 10916 10915 10917 10918 10917 10919 10921 10922 10925 10925 10926 10931 10932 10932 10936 10937 10937 10940 10943 10946 10949 10951 10952 10954 10955 10956 10957 10959 10960 10961 10961 10962 10963 10966 10969 10971 10970 10970 10971 10971 10972 10974 10975 10974 10974 10974 10973 10974 10973 10973 10973 10972 10971 10971 10971 10971 10971 10971 10971 10972 10973 10974 10975 10975 10975 10975 10976 10977 10978 10978 10978 10979 10980 10982
10913 10913 10913 10913 10913 10911 10910 10910 10911 10910 10910 10911 10910 10911 10911 10910 10912 10912 10910 10913 10915 10915 10917 10918 10917 10921 10924 10924 10927 10929 10929 10933 10935 10938 10942 10944 10946 10948 10949 10951 10952 10954 10956 10956 10957 10957 10959 10962 10966 10966 10965 10966 10968 10969 10970 10972 10972 10972 10972 10972 10972 10972 10972 10972 10972 10971 10971 10971 10971 10972 10971 10971 10971 10972 10973 10974 10976 10975 10975 10976 10976 10978 10978 10978 10979 10979 10980 10981
10909 10909 10909 10909 10910 10909 10907 10906 10906 10906 10906 10906 10906 10906 10906 10906 10907 10907 10906 10907 10909 10910 10910 10910 10910 10912 10916 10917 10918 10920 10922 10924 10927 10930 10933 10936 10939 10941 10943 10945 10948 10948 10949 10951 10953 10954 10958 10961 10961 10960 10959 10962 10964 10966 10968 10969 10969 10969 10969 10970 10970 10971 10971 10971 10971 10971 10971 10971 10971 10972 10972 10971 10972 10972 10972 10974 10976 10976 10976 10976 10977 10978 10979 10979 10979 10980 10980 10981
10905 10905 10905 10905 10906 10905 10903 10902 10902 10902 10902 10902 10902 10902 10901 10901 10903 10903 10903 10902 10902 10905 10905 10904 10905 10904 10907 10911 10909 10911 10914 10915 10920 10923 10924 10927 10931 10934 10936 10939 10942 10942 10943 10947 10950 10952 10956 10957 10954 10953 10953 10957 10961 10963 10965 10966 10966 10966 10967 10968 10969 10969 10970 10970 10970 10971 10970 10971 10971 10971 10972 10972 10972 10972 10972 10973 10976 10977 10977 10977 10977 10978 10980 10980 10980 10981 10981 10982
10900 10899 10899 10899 10900 10901 10900 10897 10896 10897 10897 10897 10897 10897 10897 10897 10898 10898 10900 10898 10896 10900 10901 10898 10900 10898 10898 10903 10903 10903 10905 10907 10912 10914 10916 10919 10922 10926 10930 10932 10934 10936 10939 10943 10945 10947 10951 10950 10946 10946 10948 10952 10958 10960 10961 10963 10964 10964 10964 10966 10966 10966 10967 10968 10969 10969 10969 10970 10970 10971 10971 10971 10972 10972 10972 10974 10976 10977 10977 10978 10978 10979 10980 10981 10981 10981 10981 10981
10896 10894 10894 10894 10894 10896 10895 10893 10892 10892 10892 10892 10891 10891 10892 10892 10893 10894 10895 10895 10891 10893 10897 10895 10893 10893 10892 10895 10897 10897 10897 10900 10904 10905 10908 10911 10912 10918 10922 10923 10926 10931 10934 10935 10938 10942 10944 10942 10940 10942 10944 10948 10953 10956 10958 10960 10961 10961 10961 10962 10963 10963 10964 10965 10967 10967 10968 10969 10969 10970 10971 10971 10971 10972 10972 10974 10975 10976 10977 10978 10979 10979 10980 10981 10981 10981 10981 10981
10890 10889 10888 10888 10888 10889 10891 10889 10887 10887 10887 10887 10886 10886 10887 10887 10888 10889 10889 10892 10889 10886 10891 10892 10889 10886 10886 10889 10892 10891 10892 10894 10894 10897 10901 10901 10903 10910 10913 10915 10920 10924 10925 10928 10931 10937 10938 10936 10937 10940 10941 10943 10948 10952 10954 10956 10958 10958 10958 10958 10959 10960 10960 10962 10965 10965 10966 10967 10967 10968 10969 10970 10970 10971 10972 10973 10974 10974 10976 10977 10978 10979 10980 10980 10981 10981 10981 10981
10884 10884 10882 10882 10882 10882 10884 10885 10881 10881 10882 10881 10880 10881 10881 10881 10882 10883 10883 10887 10886 10882 10884 10887 10885 10881 10880 10884 10886 10886 10888 10888 10886 10890 10894 10893 10896 10903 10905 10907 10912 10914 10917 10921 10925 10931 10932 10930 10932 10936 10936 10937 10941 10947 10950 10952 10954 10955 10955 10953 10955 10957 10957 10959 10962 10963 10963 10964 10965 10966 10968 10969 10969 10970 10971 10972 10973 10973 10974 10976 10978 10979 10979 10980 10981 10980 10980 10981
10878 10878 10877 10875 10875 10874 10875 10878 10876 10875 10877 10875 10874 10875 10876 10875 10876 10877 10878 10881 10883 10880 10879 10878 10879 10878 10876 10878 10880 10880 10884 10883 10880 10883 10887 10887 10889 10893 10897 10899 10902 10904 10908 10913 10920 10925 10924 10923 10927 10930 10929 10931 10936 10942 10944 10945 10949 10951 10950 10948 10950 10952 10954 10955 10958 10960 10960 10961 10963 10965 10965 10967 10968 10969 10970 10971 10972 10973 10973 10975 10977 10978 10979 10980 10980 10980 10979 10980
10870 10871 10871 10868 10868 10868 10866 10869 10871 10870 10869 10868 10867 10868 10869 10869 10870 10870 10872 10876 10877 10876 10876 10872 10871 10874 10873 10873 10873 10874 10878 10877 10874 10879 10882 10881 10881 10885 10889 10891 10893 10896 10899 10907 10914 10916 10915 10916 10921 10923 10923 10927 10932 10936 10936 10938 10943 10945 10944 10944 10945 10947 10950 10952 10954 10956 10957 10958 10961 10963 10964 10966 10967 10967 10968 10970 10971 10972 10972 10973 10975 10977 10978 10979 10979 10978 10978 10979
10863 10863 10864 10860 10860 10861 10858 10858 10863 10863 10862 10861 10860 10861 10862 10862 10864 10864 10866 10871 10870 10868 10871 10870 10866 10866 10867 10869 10868 10867 10872 10871 10870 10875 10877 10874 10875 10879 10881 10882 10885 10888 10892 10899 10905 10906 10908 10910 10913 10917 10920 10924 10927 10928 10928 10932 10938 10938 10938 10941 10941 10941 10945 10948 10951 10953 10953 10955 10959 10961 10962 10964 10965 10966 10967 10969 10970 10970 10971 10972 10972 10975 10977 10977 10977 10977 10978 10978
10855 10855 10856 10854 10852 10853 10851 10849 10853 10854 10855 10855 10853 10852 10854 10855 10856 10857 10861 10866 10862 10858 10864 10867 10862 10859 10860 10863 10863 10862 10865 10865 10865 10871 10871 10867 10869 10873 10874 10874 10878 10881 10883 10890 10894 10896 10899 10901 10906 10912 10916 10918 10919 10920 10921 10925 10931 10931 10932 10936 10937 10938 10941 10944 10947 10948 10949 10954 10957 10958 10959 10961 10963 10964 10965 10966 10967 10967 10969 10970 10971 10973 10975 10975 10975 10976 10977 10977
10847 10847 10848 10847 10845 10843 10842 10842 10844 10843 10844 10847 10846 10844 10846 10847 10848 10853 10857 10857 10853 10851 10856 10859 10856 10854 10854 10855 10856 10858 10860 10858 10859 10865 10864 10861 10864 10867 10867 10868 10870 10873 10876 10881 10884 10886 10889 10894 10900 10906 10909 10910 10911 10913 10915 10918 10923 10924 10926 10931 10933 10934 10936 10938 10942 10944 10947 10952 10954 10954 10955 10958 10960 10961 10962 10963 10964 10965 10967 10968 10970 10971 10973 10973 10973 10974 10974 10975
10837 10837 10837 10838 10838 10835 10831 10834 10835 10832 10834 10837 10837 10837 10838 10838 10843 10850 10850 10845 10845 10845 10845 10848 10850 10850 10848 10846 10849 10852 10853 10852 10854 10858 10858 10856 10858 10861 10862 10862 10863 10866 10869 10872 10874 10877 10882 10888 10893 10897 10901 10903 10905 10907 10908 10912 10914 10915 10920 10924 10927 10930 10932 10935 10938 10941 10945 10949 10949 10949 10951 10956 10958 10958 10959 10960 10961 10963 10965 10966 10967 10968 10970 10971 10971 10972 10972 10974
10827 10827 10826 10827 10828 10826 10821 10822 10825 10823 10823 10825 10827 10828 10829 10832 10841 10844 10839 10835 10837 10836 10834 10838 10843 10843 10841 10839 10841 10844 10846 10846 10848 10851 10852 10850 10852 10856 10856 10857 10858 10860 10861 10863 10866 10870 10874 10879 10885 10891 10894 10896 10899 10900 10902 10907 10906 10907 10914 10918 10921 10926 10929 10932 10935 10937 10940 10944 10944 10944 10947 10953 10955 10954 10955 10957 10958 10960 10962 10963 10965 10966 10967 10968 10969 10970 10970 10971
10817 10817 10816 10815 10816 10817 10813 10810 10812 10812 10811 10813 10816 10818 10819 10829 10836 10833 10829 10828 10827 10824 10824 10828 10832 10834 10836 10835 10833 10835 10838 10840 10840 10842 10845 10846 10847 10850 10851 10851 10852 10854 10853 10855 10861 10864 10867 10871 10877 10881 10883 10886 10890 10892 10894 10896 10895 10897 10904 10908 10912 10918 10923 10927 10930 10931 10933 10936 10936 10938 10944 10949 10949 10948 10950 10952 10954 10956 10958 10960 10962 10963 10964 10965 10966 10968 10968 10967
10805 10805 10805 10803 10803 10805 10804 10800 10799 10799 10799 10801 10803 10807 10814 10824 10825 10819 10820 10820 10816 10814 10814 10817 10821 10824 10827 10830 10827 10825 10828 10834 10833 10832 10838 10841 10841 10843 10845 10845 10845 10847 10848 10850 10854 10856 10859 10864 10867 10869 10873 10878 10882 10883 10884 10884 10887 10891 10894 10899 10906 10913 10919 10921 10922 10925 10926 10927 10931 10936 10941 10943 10942 10943 10944 10947 10950 10953 10954 10956 10958 10960 10961 10962 10963 10964 10965 10965
10792 10792 10791 10790 10790 10792 10792 10790 10786 10785 10786 10786 10789 10799 10808 10813 10811 10808 10810 10809 10806 10806 10804 10805 10812 10816 10816 10820 10822 10819 10817 10822 10824 10825 10830 10834 10835 10837 10839 10840 10839 10840 10842 10844 10845 10848 10852 10856 10857 10860 10866 10871 10872 10873 10875 10877 10882 10885 10887 10895 10905 10909 10911 10912 10915 10919 10918 10920 10928 10933 10936 10937 10937 10939 10940 10943 10947 10948 10950 10952 10954 10956 10957 10958 10960 10961 10962 10962
10780 10780 10776 10775 10778 10778 10778 10778 10772 10771 10773 10771 10777 10791 10798 10798 10798 10798 10798 10796 10795 10796 10795 10795 10801 10806 10807 10808 10813 10813 10809 10811 10814 10818 10822 10825 10829 10831 10831 10833 10834 10834 10835 10837 10838 10841 10844 10847 10849 10854 10858 10862 10863 10864 10867 10871 10874 10878 10885 10892 10896 10899 10901 10903 10908 10911 10912 10919 10926 10928 10929 10931 10932 10935 10936 10939 10942 10943 10945 10947 10949 10951 10953 10954 10956 10957 10959 10960
10767 10767 10762 10759 10765 10765 10762 10762 10758 10757 10759 10759 10768 10779 10782 10782 10784 10785 10785 10784 10783 10783 10784 10787 10790 10793 10796 10799 10802 10803 10802 10802 10805 10809 10812 10816 10822 10825 10824 10825 10828 10829 10829 10828 10830 10834 10837 10839 10842 10847 10851 10852 10854 10856 10860 10866 10870 10875 10881 10884 10886 10892 10894 10895 10901 10907 10910 10917 10921 10921 10923 10925 10928 10932 10932 10933 10937 10939 10940 10943 10945 10947 10949 10950 10952 10954 10955 10955
10752 10753 10747 10742 10749 10749 10747 10747 10744 10742 10743 10748 10759 10765 10764 10766 10769 10770 10771 10770 10770 10770 10772 10779 10780 10779 10784 10790 10793 10792 10791 10793 10795 10799 10802 10806 10813 10818 10818 10817 10819 10823 10823 10821 10824 10826 10828 10832 10834 10838 10842 10843 10847 10853 10857 10862 10865 10867 10870 10874 10878 10884 10885 10884 10893 10902 10905 10909 10913 10916 10919 10921 10925 10928 10927 10928 10933 10934 10935 10937 10940 10942 10944 10946 10946 10949 10952 10951
10737 10739 10732 10725 10728 10732 10732 10730 10727 10729 10731 10734 10743 10748 10749 10751 10753 10755 10757 10757 10757 10757 10761 10767 10768 10768 10772 10778 10782 10781 10779 10781 10786 10789 10792 10796 10803 10808 10810 10811 10811 10813 10816 10816 10817 10817 10819 10825 10828 10829 10833 10838 10845 10852 10852 10850 10852 10855 10858 10864 10871 10876 10876 10874 10882 10894 10898 10901 10907 10911 10914 10918 10921 10922 10921 10923 10926 10928 10929 10932 10936 10937 10939 10942 10941 10942 10947 10946
10720 10722 10717 10708 10707 10711 10715 10713 10709 10712 10716 10720 10727 10731 10732 10736 10737 10739 10743 10744 10743 10745 10748 10751 10753 10757 10761 10764 10769 10770 10767 10768 10774 10779 10783 10788 10793 10797 10801 10805 10804 10803 10807 10811 10811 10810 10811 10817 10821 10821 10825 10835 10841 10844 10841 10837 10840 10845 10851 10856 10861 10866 10867 10863 10871 10885 10891 10894 10900 10904 10910 10916 10916 10916 10917 10917 10919 10922 10924 10927 10931 10932 10934 10937 10934 10935 10941 10941
10703 10705 10701 10691 10687 10690 10693 10695 10694 10693 10696 10704 10710 10711 10712 10717 10721 10725 10728 10728 10730 10733 10733 10734 10740 10747 10749 10750 10754 10756 10757 10758 10761 10766 10773 10779 10784 10787 10789 10794 10796 10795 10797 10803 10806 10804 10802 10806 10814 10818 10820 10826 10831 10834 10833 10830 10832 10837 10844 10850 10853 10857 10860 10858 10864 10877 10884 10887 10892 10896 10904 10911 10911 10911 10913 10912 10913 10916 10918 10921 10925 10926 10929 10930 10928 10930 10936 10936
10684 10688 10685 10671 10665 10668 10671 10676 10681 10677 10675 10683 10688 10689 10693 10697 10702 10709 10711 10712 10716 10719 10718 10721 10728 10733 10735 10737 10737 10740 10746 10748 10749 10754 10761 10767 10773 10778 10779 10781 10786 10788 10789 10794 10797 10797 10796 10798 10806 10813 10815 10816 10821 10827 10828 10826 10826 10831 10838 10844 10846 10849 10856 10858 10861 10867 10873 10880 10885 10889 10897 10904 10905 10905 10907 10907 10906 10907 10910 10916 10919 10921 10923 10925 10923 10924 10929 10932
10663 10668 10667 10652 10641 10644 10650 10658 10664 10659 10654 10659 10664 10669 10673 10676 10682 10689 10693 10696 10699 10702 10703 10707 10713 10716 10719 10722 10722 10726 10732 10736 10739 10743 10748 10754 10759 10766 10770 10770 10773 10780 10782 10784 10786 10789 10791 10792 10796 10804 10809 10809 10813 10821 10824 10823 10823 10825 10830 10835 10837 10841 10846 10849 10850 10853 10860 10872 10879 10881 10889 10897 10898 10898 10899 10900 10898 10899 10904 10910 10913 10915 10917 10919 10919 10917 10921 10928
10642 10644 10645 10634 10618 10616 10626 10637 10642 10639 10635 10635 10639 10646 10652 10657 10665 10670 10672 10677 10681 10683 10686 10691 10696 10698 10700 10706 10710 10714 10718 10722 10728 10732 10736 10740 10743 10753 10761 10760 10762 10771 10773 10773 10777 10781 10785 10786 10787 10796 10804 10806 10808 10813 10815 10815 10815 10816 10818 10822 10827 10830 10833 10836 10839 10841 10850 10863 10867 10871 10882 10890 10890 10889 10889 10890 10891 10894 10898 10901 10904 10909 10910 10913 10915 10911 10914 10921
10617 10619 10620 10612 10596 10592 10600 10611 10616 10615 10612 10610 10612 10623 10634 10640 10646 10649 10650 10655 10660 10663 10666 10671 10676 10678 10682 10690 10697 10701 10704 10708 10713 10718 10724 10726 10728 10739 10749 10748 10751 10760 10763 10765 10769 10772 10776 10779 10783 10789 10796 10800 10802 10802 10803 10805 10807 10808 10809 10812 10816 10819 10822 10824 10827 10834 10846 10852 10853 10862 10875 10877 10877 10881 10881 10882 10887 10890 10893 10894 10897 10902 10905 10906 10906 10905 10908 10914
10585 10590 10592 10583 10573 10572 10574 10579 10585 10585 10584 10585 10590 10603 10615 10618 10622 10626 10627 10632 10637 10638 10641 10648 10655 10660 10666 10674 10680 10685 10690 10692 10696 10702 10710 10714 10716 10725 10735 10736 10739 10749 10756 10757 10758 10761 10767 10772 10778 10783 10786 10790 10793 10793 10792 10795 10799 10802 10803 10805 10807 10811 10814 10816 10821 10830 10839 10839 10843 10856 10865 10864 10870 10877 10875 10876 10881 10883 10887 10891 10891 10892 10896 10897 10897 10900 10905 10908
10551 10555 10557 10551 10548 10550 10547 10546 10551 10551 10554 10560 10567 10579 10591 10593 10596 10601 10604 10607 10611 10614 10618 10628 10635 10640 10649 10655 10657 10664 10672 10676 10680 10688 10695 10701 10705 10711 10720 10724 10727 10737 10747 10749 10747 10751 10759 10764 10771 10776 10778 10780 10783 10784 10785 10787 10791 10794 10796 10799 10800 10802 10807 10811 10817 10824 10827 10830 10840 10851 10852 10854 10864 10869 10867 10869 10873 10874 10879 10885 10883 10882 10886 10888 10890 10895 10899 10902
10516 10516 10518 10517 10518 10522 10520 10517 10517 10517 10524 10532 10537 10547 10561 10567 10568 10573 10579 10582 10586 10591 10596 10603 10611 10617 10627 10636 10640 10647 10658 10663 10668 10673 10679 10686 10692 10697 10704 10712 10717 10723 10734 10740 10738 10741 10751 10758 10762 10767 10770 10771 10773 10777 10779 10780 10782 10785 10789 10794 10794 10795 10799 10805 10811 10816 10817 10822 10835 10840 10839 10844 10855 10859 10857 10860 10863 10865 10870 10874 10874 10875 10877 10878 10884 10891 10892 10894
10481 10481 10482 10482 10484 10488 10489 10488 10486 10485 10491 10499 10503 10512 10527 10536 10538 10544 10551 10554 10560 10567 10568 10575 10589 10598 10609 10622 10626 10631 10640 10645 10647 10653 10659 10665 10675 10684 10693 10704 10709 10711 10722 10732 10730 10732 10742 10749 10752 10756 10760 10764 10767 10769 10769 10771 10774 10777 10782 10787 10789 10790 10795 10800 10804 10809 10809 10813 10823 10827 10828 10835 10845 10849 10849 10851 10854 10857 10860 10862 10865 10870 10871 10870 10876 10884 10886 10888
10451 10450 10450 10450 10454 10457 10457 10457 10457 10457 10460 10467 10473 10481 10491 10499 10505 10511 10517 10522 10534 10542 10541 10550 10569 10580 10590 10601 10602 10604 10615 10623 10631 10641 10648 10654 10667 10679 10687 10695 10698 10700 10711 10721 10721 10724 10733 10739 10742 10746 10750 10757 10761 10761 10761 10762 10763 10767 10776 10785 10787 10787 10790 10793 10795 10797 10799 10803 10807 10812 10819 10828 10833 10835 10837 10840 10844 10847 10851 10855 10858 10862 10864 10863 10867 10876 10880 10881
10427 10425 10423 10425 10429 10430 10429 10431 10432 10432 10436 10441 10446 10451 10459 10467 10475 10481 10487 10497 10510 10514 10513 10528 10547 10556 10566 10576 10578 10585 10598 10610 10623 10636 10642 10649 10661 10670 10676 10682 10686 10690 10700 10709 10711 10714 10722 10728 10732 10735 10741 10749 10753 10754 10754 10749 10749 10764 10779 10783 10779 10776 10778 10781 10783 10785 10788 10792 10795 10801 10812 10819 10817 10816 10823 10831 10835 10838 10842 10847 10850 10854 10856 10856 10859 10867 10872 10873